EW4405 Weather Reports


time (UTC)temp
C
wind
direction
speed
KPH
gust
KPH
rain 1hr
cm
rain 24hr
cm
rain mn
cm
humidity
%
barometer
mb
20260510065948 23 167 3.2 11.3 0.00 0.00 0.00 85 1010.5
20260510065447 23 178 3.2 11.3 0.00 0.00 0.00 85 1010.5
20260510064947 23 163 3.2 12.9 0.00 0.00 0.00 85 1010.5
20260510064446 24 168 3.2 12.9 0.00 0.00 0.00 85 1010.6
20260510063945 24 180 3.2 8.0 0.00 0.00 0.00 85 1010.6
20260510063446 24 184 1.6 8.0 0.00 0.00 0.00 85 1010.6
20260510062942 24 186 1.6 8.0 0.00 0.00 0.00 85 1010.7
20260510062440 24 186 1.6 8.0 0.00 0.00 0.00 85 1010.7
20260510061941 24 188 1.6 8.0 0.00 0.00 0.00 84 1010.7
20260510061712 24 171 1.6 8.0 0.00 0.00 0.00 84 1010.7
20260510060940 24 177 1.6 8.0 0.00 0.00 0.00 84 1010.7
20260510060440 24 179 1.6 6.4 0.00 0.00 0.00 84 1010.9
20260510060157 24 179 0.0 4.8 0.00 0.00 0.00 84 1010.8
20260510055437 24 179 0.0 4.8 0.00 0.00 0.00 84 1010.9
20260510054936 24 183 0.0 4.8 0.00 0.00 0.00 83 1010.8
20260510054436 24 182 1.6 6.4 0.00 0.00 0.00 83 1010.9
20260510054155 24 185 1.6 6.4 0.00 0.00 0.00 84 1010.8
20260510053434 24 182 3.2 8.0 0.00 0.00 0.00 84 1010.7
20260510053154 25 182 1.6 8.0 0.00 0.00 0.00 84 1010.8
20260510052436 25 197 1.6 8.0 0.00 0.00 0.00 84 1010.8
20260510051935 25 186 3.2 9.7 0.00 0.00 0.00 83 1010.9
20260510051433 25 179 1.6 9.7 0.00 0.00 0.00 83 1011.0
20260510050934 25 183 1.6 6.4 0.00 0.00 0.00 83 1011.0
20260510050433 25 176 0.0 6.4 0.00 0.00 0.00 83 1011.2
20260510045930 25 175 0.0 6.4 0.00 0.00 0.00 82 1011.3
20260510045429 25 182 0.0 3.2 0.00 0.00 0.00 82 1011.4
20260510044924 25 182 0.0 3.2 0.00 0.00 0.00 82 1011.5
20260510044425 25 182 0.0 1.6 0.00 0.00 0.00 81 1011.5
20260510043924 25 182 0.0 1.6 0.00 0.00 0.00 81 1011.3
20260510043421 25 182 0.0 1.6 0.00 0.00 0.00 81 1011.3
20260510042920 25 182 0.0 4.8 0.00 0.00 0.00 80 1011.3
20260510042419 25 182 1.6 6.4 0.00 0.00 0.00 79 1011.2
20260510041918 25 199 0.0 6.4 0.00 0.00 0.00 79 1011.1
20260510041417 25 166 0.0 6.4 0.00 0.00 0.00 78 1011.1
20260510040917 26 165 0.0 6.4 0.00 0.00 0.00 78 1011.1
20260510040418 26 161 0.0 6.4 0.00 0.00 0.00 77 1011.1
20260510035919 26 121 0.0 1.6 0.00 0.00 0.00 76 1011.3
20260510035416 26 122 0.0 3.2 0.00 0.00 0.00 75 1011.2
20260510034919 26 122 0.0 3.2 0.00 0.00 0.00 75 1011.1
20260510034642 26 122 0.0 4.8 0.00 0.00 0.00 74 1011.2
20260510034150 26 123 0.0 4.8 0.00 0.00 0.00 74 1011.2
20260510033418 26 90 0.0 3.2 0.00 0.00 0.00 73 1011.3
20260510032919 26 80 0.0 3.2 0.00 0.00 0.00 73 1011.4
20260510032418 26 76 0.0 3.2 0.00 0.00 0.00 72 1011.3
20260510031913 26 76 1.6 4.8 0.00 0.00 0.00 72 1011.4
20260510031412 26 72 0.0 8.0 0.00 0.00 0.00 71 1011.4
20260510030912 26 78 1.6 8.0 0.00 0.00 0.00 70 1011.2
20260510030411 26 148 1.6 4.8 0.00 0.00 0.00 69 1011.2
20260510025911 26 165 0.0 4.8 0.00 0.00 0.00 68 1011.1
20260510025411 26 193 0.0 4.8 0.00 0.00 0.00 68 1010.9
20260510024911 26 202 0.0 4.8 0.00 0.00 0.00 67 1010.7
20260510024412 26 188 0.0 4.8 0.00 0.00 0.00 66 1010.5
20260510024127 27 187 1.6 4.8 0.00 0.00 0.00 66 1010.4
20260510023409 27 207 1.6 4.8 0.00 0.00 0.00 65 1010.2
20260510022909 27 180 1.6 8.0 0.00 0.00 0.00 65 1010.1
20260510022410 27 177 3.2 8.0 0.00 0.00 0.00 64 1009.9
20260510021910 27 203 1.6 8.0 0.00 0.00 0.00 64 1009.8
20260510021409 27 176 0.0 8.0 0.00 0.00 0.00 64 1009.8
20260510020908 27 180 1.6 6.4 0.00 0.00 0.00 63 1009.7
20260510020409 27 180 3.2 8.0 0.00 0.00 0.00 63 1009.4
20260510015911 27 157 3.2 8.0 0.00 0.00 0.00 63 1009.0
20260510015408 27 211 0.0 4.8 0.00 0.00 0.00 63 1009.0
20260510014908 27 205 0.0 4.8 0.00 0.00 0.00 63 1009.1
20260510014631 27 205 0.0 1.6 0.00 0.00 0.00 63 1009.1
20260510013851 27 205 0.0 1.6 0.00 0.00 0.00 63 1008.8
20260510013345 27 205 0.0 4.8 0.00 0.00 0.00 63 1008.7
20260510012835 27 205 1.6 6.4 0.00 0.00 0.00 63 1008.7
20260510012329 27 198 1.6 6.4 0.00 0.00 0.00 62 1008.6
20260510011824 27 244 0.0 0.0 0.00 0.00 0.00 63 1008.5
20260510011314 27 244 0.0 0.0 0.00 0.00 0.00 63 1008.4
20260510010808 27 244 0.0 0.0 0.00 0.00 0.00 62 1008.3
20260510010519 27 244 1.6 4.8 0.00 0.00 0.00 61 1007.8
20260510005752 27 244 3.2 4.8 0.00 0.00 0.00 60 1007.8
20260510005245 27 245 3.2 8.0 0.00 0.00 0.00 60 1007.6
20260510005002 28 254 3.2 8.0 0.00 0.00 0.00 59 1007.6
20260510004230 28 296 1.6 8.0 0.00 0.00 0.00 58 1007.8
20260510003723 29 299 1.6 9.7 0.00 0.00 0.00 56 1008.1
20260510003218 30 305 1.6 9.7 0.00 0.00 0.00 55 1008.3
20260510002708 30 198 0.0 4.8 0.00 0.00 0.00 59 1008.0
20260510002201 30 198 0.0 4.8 0.00 0.00 0.00 59 1007.8
20260510001655 30 198 0.0 4.8 0.00 0.00 0.00 58 1007.8
20260510001145 30 198 0.0 3.2 0.00 0.00 0.00 57 1007.8
20260510000900 30 198 0.0 3.2 0.00 0.00 0.00 57 1007.7
20260510000359 30 198 1.6 6.4 0.00 0.00 0.00 56 1007.9
20260509235623 30 198 1.6 6.4 0.00 0.00 0.00 56 1007.8
20260509235118 31 203 0.0 4.8 0.00 0.00 0.00 56 1007.3
20260509234611 31 206 1.6 8.0 0.00 0.00 0.00 55 1007.4
20260509234324 31 219 3.2 11.3 0.00 0.00 0.00 56 1007.4
20260509233555 31 204 3.2 11.3 0.00 0.00 0.00 55 1007.3
20260509233049 31 173 3.2 8.0 0.00 0.00 0.00 55 1007.3
20260509232539 31 175 3.2 8.0 0.00 0.00 0.00 54 1007.4
20260509232302 31 188 3.2 8.0 0.00 0.00 0.00 54 1007.4
20260509232019 32 169 3.2 8.0 0.00 0.00 0.00 53 1007.4
20260509231018 32 198 3.2 11.3 0.00 0.00 0.00 52 1007.6
20260509230512 32 198 3.2 11.3 0.00 0.00 0.00 51 1007.5
20260509230006 33 174 3.2 9.7 0.00 0.00 0.00 49 1007.3
20260509225721 33 180 3.2 9.7 0.00 0.00 0.00 49 1007.2
20260509224949 34 184 3.2 11.3 0.00 0.00 0.00 48 1007.2
20260509224443 34 171 1.6 11.3 0.00 0.00 0.00 49 1007.1
20260509223933 34 163 3.2 9.7 0.00 0.00 0.00 50 1007.2
20260509223428 33 172 4.8 11.3 0.00 0.00 0.00 51 1007.1
20260509222921 33 169 4.8 11.3 0.00 0.00 0.00 49 1007.0
20260509222412 34 209 4.8 9.7 0.00 0.00 0.00 50 1007.0
20260509222134 34 176 4.8 8.0 0.00 0.00 0.00 47 1007.1
20260509221359 34 205 3.2 9.7 0.00 0.00 0.00 47 1007.0
20260509220849 34 201 3.2 9.7 0.00 0.00 0.00 47 1007.0
20260509220343 35 164 3.2 9.7 0.00 0.00 0.00 47 1007.0
20260509215838 35 179 3.2 9.7 0.00 0.00 0.00 48 1007.0
20260509215327 35 209 3.2 9.7 0.00 0.00 0.00 46 1007.0
20260509215318 35 206 3.2 8.0 0.00 0.00 0.00 45 1007.0
20260509214315 35 176 3.2 8.0 0.00 0.00 0.00 46 1007.0
20260509213806 36 174 3.2 8.0 0.00 0.00 0.00 46 1007.0
20260509213300 36 209 1.6 6.4 0.00 0.00 0.00 45 1007.0
20260509212753 36 233 0.0 3.2 0.00 0.00 0.00 46 1007.0
20260509212245 36 232 0.0 4.8 0.00 0.00 0.00 45 1007.0
20260509211738 36 232 1.6 6.4 0.00 0.00 0.00 46 1006.9
20260509211231 36 234 1.6 6.4 0.00 0.00 0.00 47 1007.0
20260509210722 36 288 0.0 4.8 0.00 0.00 0.00 48 1007.1
20260509210432 35 286 1.6 6.4 0.00 0.00 0.00 49 1007.2
20260509205710 35 285 1.6 6.4 0.00 0.00 0.00 49 1007.2
20260509205202 35 45 1.6 4.8 0.00 0.00 0.00 49 1007.2
20260509204702 35 43 1.6 4.8 0.00 0.00 0.00 49 1007.3
20260509204202 35 41 3.2 6.4 0.00 0.00 0.00 49 1007.3
20260509203702 35 45 1.6 6.4 0.00 0.00 0.00 49 1007.4
20260509203203 35 336 1.6 6.4 0.00 0.00 0.00 50 1007.5
20260509202703 35 0 1.6 4.8 0.00 0.00 0.00 49 1007.6
20260509202202 35 245 1.6 4.8 0.00 0.00 0.00 51 1007.6
20260509201702 34 251 1.6 4.8 0.00 0.00 0.00 52 1007.7
20260509201201 34 247 1.6 4.8 0.00 0.00 0.00 53 1007.8
20260509200703 34 294 1.6 9.7 0.00 0.00 0.00 53 1007.8
20260509200648 33 294 3.2 9.7 0.00 0.00 0.00 53 1007.9
20260509195918 34 46 1.6 4.8 0.00 0.00 0.00 54 1008.0
20260509195434 33 49 1.6 4.8 0.00 0.00 0.00 54 1007.9
20260509194653 33 55 1.6 3.2 0.00 0.00 0.00 56 1008.0
20260509194153 33 54 1.6 6.4 0.00 0.00 0.00 55 1007.9
20260509193653 33 55 1.6 6.4 0.00 0.00 0.00 55 1008.0
20260509193151 33 252 1.6 3.2 0.00 0.00 0.00 54 1008.1
20260509192649 33 252 3.2 6.4 0.00 0.00 0.00 56 1008.3
20260509192417 32 253 3.2 6.4 0.00 0.00 0.00 54 1008.3
20260509191651 32 300 1.6 8.0 0.00 0.00 0.00 56 1008.3
20260509191148 32 301 1.6 8.0 0.00 0.00 0.00 56 1008.3
20260509190645 32 323 1.6 8.0 0.00 0.00 0.00 56 1008.1
20260509190145 32 322 1.6 8.0 0.00 0.00 0.00 54 1008.1
20260509185645 32 31 1.6 4.8 0.00 0.00 0.00 56 1008.1
20260509185145 32 32 1.6 6.4 0.00 0.00 0.00 56 1008.1
20260509184645 32 315 1.6 6.4 0.00 0.00 0.00 58 1008.3
20260509184146 32 0 1.6 4.8 0.00 0.00 0.00 58 1008.4
20260509183646 32 331 1.6 3.2 0.00 0.00 0.00 58 1008.6
20260509183407 31 334 0.0 3.2 0.00 0.00 0.00 62 1008.7
20260509182646 31 335 0.0 4.8 0.00 0.00 0.00 61 1008.7
20260509182145 31 335 1.6 4.8 0.00 0.00 0.00 63 1008.9
20260509181647 31 221 1.6 6.4 0.00 0.00 0.00 66 1008.9
20260509181145 31 196 1.6 6.4 0.00 0.00 0.00 65 1009.0
20260509180907 30 191 1.6 6.4 0.00 0.00 0.00 65 1008.9
20260509180144 30 258 1.6 6.4 0.00 0.00 0.00 69 1009.1
20260509175646 30 258 1.6 6.4 0.00 0.00 0.00 68 1009.3
20260509175145 29 259 1.6 4.8 0.00 0.00 0.00 73 1009.4
20260509174646 29 261 1.6 6.4 0.00 0.00 0.00 73 1009.7
20260509174144 29 263 1.6 6.4 0.00 0.00 0.00 73 1009.8
20260509173646 29 267 1.6 6.4 0.00 0.00 0.00 72 1009.9
20260509173143 29 265 1.6 6.4 0.00 0.00 0.00 72 1010.0
20260509172646 29 260 0.0 8.0 0.00 0.00 0.00 73 1010.2
20260509172144 28 261 0.0 8.0 0.00 0.00 0.00 75 1010.2
20260509171645 28 198 1.6 4.8 0.00 0.00 0.00 76 1010.2
20260509171144 27 198 0.0 4.8 0.00 0.00 0.00 77 1010.2
20260509170646 27 194 0.0 1.6 0.00 0.00 0.00 79 1010.2
20260509170142 27 194 0.0 3.2 0.00 0.00 0.00 80 1010.1
20260509165642 27 194 0.0 3.2 0.00 0.00 0.00 79 1010.3
20260509165141 27 194 0.0 3.2 0.00 0.00 0.00 79 1010.4
20260509164641 27 194 0.0 3.2 0.00 0.00 0.00 79 1010.4
20260509164140 27 194 0.0 4.8 0.00 0.00 0.00 79 1010.5
20260509163642 27 194 1.6 4.8 0.00 0.00 0.00 79 1010.4
20260509163131 27 190 0.0 4.8 0.00 0.00 0.00 79 1010.3
20260509162625 27 182 0.0 3.2 0.00 0.00 0.00 79 1010.2
20260509162120 27 182 0.0 3.2 0.00 0.00 0.00 79 1010.2
20260509161608 27 183 1.6 4.8 0.00 0.00 0.00 80 1010.2
20260509161103 27 184 1.6 4.8 0.00 0.00 0.00 80 1010.1
20260509160557 26 210 0.0 3.2 0.00 0.00 0.00 81 1010.0
20260509160048 26 210 0.0 0.0 0.00 0.00 0.00 81 1010.1
20260509155540 26 210 0.0 0.0 0.00 0.03 0.00 81 1010.3
20260509155032 26 210 0.0 0.0 0.00 0.03 0.00 81 1010.3
20260509154522 26 210 0.0 3.2 0.00 0.03 0.00 81 1009.9
20260509154017 26 210 1.6 3.2 0.00 0.05 0.00 82 1009.9
20260509153511 26 211 0.0 3.2 0.00 0.08 0.00 82 1010.0
20260509153001 26 214 0.0 1.6 0.00 0.10 0.00 83 1009.9
20260509152455 25 213 0.0 1.6 0.00 0.13 0.00 84 1010.0
20260509151949 25 213 0.0 3.2 0.00 0.13 0.00 84 1009.9
20260509151438 25 213 0.0 3.2 0.00 0.13 0.00 84 1009.7
20260509150934 25 213 0.0 1.6 0.00 0.13 0.00 85 1009.7
20260509150426 25 213 0.0 1.6 0.00 0.13 0.00 85 1009.7
20260509145918 25 213 0.0 3.2 0.00 0.13 0.00 86 1010.0
20260509145411 25 213 0.0 4.8 0.00 0.13 0.00 86 1009.8
20260509144905 25 213 0.0 6.4 0.00 0.13 0.00 87 1009.7
20260509144619 25 213 0.0 6.4 0.00 0.13 0.00 87 1009.8
20260509143849 25 216 0.0 4.8 0.00 0.13 0.00 87 1009.6
20260509143610 24 217 0.0 1.6 0.00 0.13 0.00 88 1009.4
20260509142832 24 217 0.0 3.2 0.00 0.13 0.00 88 1009.6
20260509142328 24 217 0.0 3.2 0.00 0.13 0.00 88 1009.3
20260509141820 24 217 0.0 3.2 0.00 0.13 0.00 88 1009.3
20260509141310 24 218 0.0 3.2 0.00 0.13 0.00 88 1009.0
20260509140804 24 218 0.0 3.2 0.00 0.13 0.00 88 1009.1
20260509140258 24 219 0.0 0.0 0.00 0.13 0.00 89 1009.1
20260509140020 24 219 0.0 3.2 0.00 0.13 0.00 89 1009.2
20260509135243 24 219 0.0 3.2 0.00 0.13 0.00 89 1009.3
20260509134736 24 198 0.0 0.0 0.00 0.13 0.00 89 1009.3
20260509134237 24 208 0.0 1.6 0.00 0.15 0.00 90 1009.7
20260509133734 24 208 0.0 3.2 0.00 0.18 0.00 90 1009.8
20260509133232 24 208 0.0 3.2 0.00 0.20 0.00 90 1010.1
20260509132729 24 207 0.0 4.8 0.00 0.28 0.00 90 1010.0
20260509132228 24 207 1.6 4.8 0.00 0.28 0.00 89 1010.2
20260509131727 23 208 1.6 4.8 0.00 0.28 0.00 89 1010.5
20260509131228 24 204 1.6 4.8 0.00 0.28 0.00 90 1010.6
20260509130726 24 174 1.6 3.2 0.00 0.28 0.00 90 1010.5
20260509130227 24 171 1.6 4.8 0.00 0.28 0.00 90 1010.1
20260509125728 23 171 0.0 4.8 0.00 0.28 0.00 90 1009.9
20260509125224 23 171 0.0 1.6 0.00 0.28 0.00 90 1010.0
20260509124721 23 171 0.0 1.6 0.00 0.28 0.00 90 1010.2
20260509124223 23 171 0.0 3.2 0.00 0.28 0.00 90 1010.1
20260509123723 23 171 0.0 3.2 0.00 0.28 0.00 90 1010.1
20260509123444 23 171 0.0 1.6 0.00 0.28 0.00 89 1010.0
20260509122719 23 171 0.0 0.0 0.00 0.28 0.00 89 1010.1
20260509122213 23 171 0.0 0.0 0.00 0.28 0.00 89 1010.1
20260509121707 23 171 0.0 1.6 0.00 0.28 0.00 89 1010.2
20260509121202 23 171 0.0 1.6 0.00 0.28 0.00 89 1010.2
20260509120704 23 171 0.0 0.0 0.00 0.28 0.00 89 1010.1
20260509120203 23 171 0.0 0.0 0.00 0.28 0.00 89 1009.8
20260509115702 23 171 0.0 0.0 0.00 0.28 0.00 89 1009.7
20260509115200 23 171 0.0 0.0 0.00 0.28 0.00 89 1009.6
20260509114700 23 171 0.0 0.0 0.00 0.28 0.00 89 1009.5
20260509114200 23 170 1.6 4.8 0.00 0.28 0.00 89 1009.7
20260509113700 23 170 1.6 4.8 0.00 0.28 0.00 89 1009.8
20260509113159 23 175 0.0 3.2 0.00 0.28 0.00 89 1009.8
20260509112929 23 176 0.0 0.0 0.00 0.28 0.00 89 1009.7
20260509112155 23 176 0.0 0.0 0.00 0.28 0.00 89 1009.7
20260509111921 23 176 0.0 0.0 0.00 0.28 0.00 89 1009.5
20260509111155 23 176 0.0 0.0 0.00 0.28 0.00 89 1009.5
20260509110652 23 176 0.0 0.0 0.00 0.28 0.00 89 1009.4
20260509110148 23 176 0.0 0.0 0.00 0.28 0.00 89 1009.4
20260509105918 23 176 0.0 0.0 0.00 0.28 0.00 89 1009.4
20260509105143 23 176 0.0 0.0 0.00 0.28 0.00 89 1009.2
20260509104639 23 176 0.0 0.0 0.00 0.28 0.00 88 1009.3
20260509104132 23 176 0.0 0.0 0.00 0.28 0.00 89 1009.4
20260509103628 23 176 0.0 0.0 0.00 0.28 0.00 88 1009.3
20260509103603 23 176 0.0 0.0 0.00 0.28 0.00 88 1009.2
20260509103224 23 176 0.0 0.0 0.00 0.28 0.00 88 1009.3
20260509102354 23 176 0.0 0.0 0.00 0.28 0.00 88 1009.2
20260509101626 23 176 0.0 0.0 0.00 0.28 0.00 88 1009.3
20260509101349 23 176 0.0 0.0 0.00 0.28 0.00 88 1009.3
20260509100625 23 176 0.0 0.0 0.00 0.28 0.00 88 1009.1
20260509100118 23 176 0.0 0.0 0.00 0.28 0.00 88 1009.1
20260509095620 23 176 0.0 0.0 0.00 0.28 0.00 88 1009.2
20260509095121 23 176 0.0 0.0 0.00 0.28 0.00 88 1009.0
20260509094620 23 176 0.0 0.0 0.00 0.28 0.00 88 1009.0
20260509094118 23 176 0.0 0.0 0.00 0.28 0.00 88 1008.9
20260509093619 23 176 0.0 0.0 0.00 0.28 0.00 88 1008.9
20260509093114 23 176 0.0 0.0 0.00 0.28 0.00 88 1008.8
20260509092609 23 176 0.0 0.0 0.00 0.28 0.00 88 1008.7
20260509092328 23 176 0.0 0.0 0.00 0.28 0.00 88 1008.9
20260509091611 23 176 0.0 0.0 0.00 0.28 0.00 88 1008.9
20260509091110 23 176 0.0 0.0 0.00 0.28 0.00 88 1009.0
20260509090833 23 176 0.0 0.0 0.00 0.28 0.00 88 1009.0
20260509090110 23 176 0.0 0.0 0.00 0.28 0.00 88 1009.0
20260509085838 23 176 0.0 0.0 0.00 0.28 0.00 88 1009.0
20260509085338 23 176 0.0 0.0 0.00 0.28 0.00 88 1008.9
20260509084610 23 176 0.0 0.0 0.00 0.28 0.00 88 1008.9
20260509084109 23 175 0.0 0.0 0.00 0.28 0.00 88 1008.8
20260509083611 23 175 0.0 0.0 0.00 0.28 0.00 88 1008.9
20260509083109 23 175 0.0 0.0 0.00 0.28 0.00 88 1008.7
20260509082608 23 175 0.0 1.6 0.00 0.28 0.00 88 1008.9
20260509082110 23 175 0.0 1.6 0.00 0.28 0.00 88 1009.1
20260509081610 23 175 0.0 4.8 0.00 0.28 0.00 88 1009.1
20260509081110 23 175 0.0 4.8 0.00 0.28 0.00 88 1008.9
20260509080608 23 176 0.0 4.8 0.00 0.28 0.00 87 1008.7
20260509080338 23 175 0.0 4.8 0.00 0.28 0.00 87 1008.7
20260509075608 23 175 0.0 4.8 0.00 0.28 0.00 87 1008.7
20260509075109 23 175 0.0 6.4 0.00 0.28 0.00 87 1008.8
20260509074609 23 174 0.0 6.4 0.00 0.28 0.00 87 1008.9
20260509074106 23 172 0.0 4.8 0.00 0.28 0.00 87 1009.0
20260509073605 23 175 1.6 4.8 0.00 0.28 0.00 87 1009.1
20260509073323 23 175 1.6 4.8 0.00 0.28 0.00 87 1009.3
20260509072603 23 176 1.6 6.4 0.00 0.28 0.00 87 1009.3
20260509072329 24 176 1.6 6.4 0.00 0.28 0.00 87 1009.5
20260509071558 24 175 0.0 4.8 0.00 0.28 0.00 87 1009.6
20260509071057 24 175 0.0 4.8 0.00 0.28 0.00 87 1009.7
20260509070554 24 176 0.0 0.0 0.00 0.28 0.00 87 1009.7
20260509070053 24 176 0.0 1.6 0.00 0.28 0.00 87 1009.7